EN

Hourly Weather Parohonsk

Today, 14 April, Wednesday

Time Temperature Precipitation Wind Pressure Humidity
00:00 +7°C° 0 mm 3 mps 748 mmHg 86%
01:00 +7°C° 0 mm 3 mps 748 mmHg 86%
02:00 +5°C° 0 mm 4 mps 748 mmHg 87%
03:00 +5°C° 0.1 mm 3 mps 748 mmHg 87%
04:00 +7°C° 0.1 mm 3 mps 748 mmHg 87%
05:00 +7°C° 0.1 mm 3 mps 747 mmHg 86%
06:00 +7°C° 0.4 mm 3 mps 747 mmHg 88%
07:00 +7°C° 0.4 mm 3 mps 747 mmHg 89%
08:00 +7°C° 0 mm 3 mps 747 mmHg 90%
09:00 +7°C° 0.5 mm 3 mps 747 mmHg 90%
10:00 +7°C° 0.5 mm 3 mps 747 mmHg 91%
11:00 +8°C° 0.5 mm 3 mps 747 mmHg 92%
12:00 +8°C° 0.7 mm 2 mps 747 mmHg 93%
13:00 +8°C° 0.7 mm 2 mps 747 mmHg 93%
14:00 +8°C° 0.7 mm 2 mps 747 mmHg 94%
15:00 +8°C° 0.4 mm 2 mps 746 mmHg 94%
16:00 +9°C° 0.4 mm 1 mps 746 mmHg 94%
17:00 +8°C° 0.4 mm 1 mps 746 mmHg 95%
18:00 +8°C° 0.1 mm 1 mps 746 mmHg 95%
19:00 +8°C° 0.1 mm 1 mps 747 mmHg 95%
20:00 +8°C° 0.1 mm 1 mps 747 mmHg 96%
21:00 +8°C° 0.1 mm 1 mps 747 mmHg 96%
22:00 +8°C° 0.1 mm 1 mps 747 mmHg 96%
23:00 +8°C° 0.1 mm 1 mps 747 mmHg 97%

Tomorrow, 15 April, Thursday

Time Temperature Precipitation Wind Pressure Humidity
00:00 +8°C° 0.2 mm 1 mps 747 mmHg 96%
01:00 +7°C° 0.2 mm 1 mps 747 mmHg 96%
02:00 +7°C° 0.2 mm 1 mps 747 mmHg 96%
03:00 +7°C° 0 mm 1 mps 747 mmHg 96%
04:00 +7°C° 0 mm 1 mps 747 mmHg 96%
05:00 +7°C° 0 mm 1 mps 747 mmHg 96%
06:00 +7°C° 0 mm 1 mps 747 mmHg 93%
07:00 +8°C° 0 mm 1 mps 747 mmHg 90%
08:00 +8°C° 0 mm 1 mps 748 mmHg 87%
09:00 +10°C° 0 mm 1 mps 747 mmHg 81%
10:00 +10°C° 0 mm 2 mps 747 mmHg 76%
11:00 +12°C° 0 mm 2 mps 747 mmHg 70%
12:00 +12°C° 0.2 mm 3 mps 747 mmHg 70%
13:00 +12°C° 0.2 mm 3 mps 747 mmHg 70%
14:00 +12°C° 0.2 mm 4 mps 747 mmHg 70%
15:00 +11°C° 0.3 mm 4 mps 747 mmHg 76%
16:00 +10°C° 0.3 mm 4 mps 747 mmHg 82%
17:00 +9°C° 0.3 mm 3 mps 747 mmHg 88%
18:00 +8°C° 0.6 mm 3 mps 747 mmHg 90%
19:00 +7°C° 0.6 mm 4 mps 747 mmHg 92%
20:00 +6°C° 0.6 mm 4 mps 747 mmHg 94%
21:00 +6°C° 0.2 mm 4 mps 746 mmHg 94%
22:00 +5°C° 0.2 mm 4 mps 746 mmHg 94%
23:00 +5°C° 0.2 mm 3 mps 746 mmHg 94%

Day after tomorrow, 16 April, Friday

Time Temperature Precipitation Wind Pressure Humidity
00:00 +5°C° 0.2 mm 3 mps 745 mmHg 94%
01:00 +5°C° 0.2 mm 3 mps 745 mmHg 95%
02:00 +5°C° 0.2 mm 3 mps 745 mmHg 95%
03:00 +6°C° 0.1 mm 2 mps 745 mmHg 96%
04:00 +7°C° 0.1 mm 2 mps 745 mmHg 96%
05:00 +7°C° 0.1 mm 2 mps 745 mmHg 96%
06:00 +7°C° 0 mm 2 mps 745 mmHg 93%
07:00 +8°C° 0 mm 2 mps 745 mmHg 91%
08:00 +8°C° 0 mm 2 mps 746 mmHg 89%
09:00 +9°C° 0.2 mm 3 mps 746 mmHg 86%
10:00 +10°C° 0.2 mm 3 mps 746 mmHg 83%
11:00 +10°C° 0.2 mm 4 mps 746 mmHg 81%
12:00 +12°C° 0.2 mm 4 mps 746 mmHg 73%
13:00 +13°C° 0.2 mm 4 mps 746 mmHg 65%
14:00 +14°C° 0.2 mm 4 mps 746 mmHg 57%
15:00 +13°C° 0.2 mm 3 mps 746 mmHg 63%
16:00 +13°C° 0.2 mm 2 mps 746 mmHg 69%
17:00 +12°C° 0.2 mm 1 mps 747 mmHg 74%
18:00 +10°C° 0.9 mm 2 mps 747 mmHg 80%
19:00 +10°C° 0.9 mm 2 mps 747 mmHg 85%
20:00 +9°C° 0.9 mm 3 mps 747 mmHg 91%
21:00 +8°C° 0.8 mm 2 mps 747 mmHg 92%
22:00 +8°C° 0.8 mm 2 mps 748 mmHg 93%
23:00 +7°C° 0.8 mm 2 mps 748 mmHg 95%

17 April, Saturday

Time Temperature Precipitation Wind Pressure Humidity
00:00 +7°C° 0 mm 2 mps 748 mmHg 95%
01:00 +6°C° 0 mm 2 mps 748 mmHg 96%
02:00 +5°C° 0 mm 3 mps 749 mmHg 96%
03:00 +5°C° 0 mm 3 mps 749 mmHg 95%
04:00 +5°C° 0 mm 3 mps 749 mmHg 95%
05:00 +7°C° 0 mm 3 mps 749 mmHg 94%
06:00 +7°C° 0 mm 3 mps 750 mmHg 91%
07:00 +8°C° 0 mm 3 mps 750 mmHg 88%
08:00 +9°C° 0 mm 3 mps 751 mmHg 85%
09:00 +9°C° 0.2 mm 3 mps 751 mmHg 80%
10:00 +10°C° 0.2 mm 3 mps 751 mmHg 75%
11:00 +11°C° 0.2 mm 3 mps 751 mmHg 70%
12:00 +12°C° 0.2 mm 3 mps 751 mmHg 67%
13:00 +12°C° 0.2 mm 3 mps 751 mmHg 64%
14:00 +13°C° 0.2 mm 3 mps 751 mmHg 61%
15:00 +13°C° 0.2 mm 3 mps 751 mmHg 62%
16:00 +13°C° 0.2 mm 3 mps 751 mmHg 63%
17:00 +14°C° 0.2 mm 2 mps 751 mmHg 64%
18:00 +12°C° 0.1 mm 2 mps 751 mmHg 69%
19:00 +11°C° 0.1 mm 1 mps 752 mmHg 74%
20:00 +10°C° 0.1 mm 1 mps 752 mmHg 79%
21:00 +10°C° 0 mm 1 mps 752 mmHg 80%
22:00 +10°C° 0 mm 1 mps 752 mmHg 82%
23:00 +10°C° 0 mm 1 mps 752 mmHg 83%

18 April, Sunday

Time Temperature Precipitation Wind Pressure Humidity
00:00 +10°C° 0 mm 1 mps 752 mmHg 84%
01:00 +10°C° 0 mm 1 mps 752 mmHg 86%
02:00 +10°C° 0 mm 1 mps 752 mmHg 87%
03:00 +10°C° 0.1 mm 1 mps 752 mmHg 89%
04:00 +10°C° 0.1 mm 1 mps 752 mmHg 91%
05:00 +9°C° 0.1 mm 1 mps 752 mmHg 93%
06:00 +9°C° 0 mm 2 mps 752 mmHg 92%
07:00 +9°C° 0 mm 2 mps 752 mmHg 91%
08:00 +10°C° 0 mm 3 mps 752 mmHg 90%
09:00 +11°C° 0 mm 3 mps 752 mmHg 85%
10:00 +11°C° 0 mm 4 mps 752 mmHg 80%
11:00 +12°C° 0 mm 4 mps 752 mmHg 74%
12:00 +13°C° 0.1 mm 5 mps 752 mmHg 70%
13:00 +13°C° 0.1 mm 5 mps 752 mmHg 65%
14:00 +14°C° 0.1 mm 5 mps 752 mmHg 60%
15:00 +13°C° 0 mm 5 mps 753 mmHg 62%
16:00 +13°C° 0 mm 6 mps 753 mmHg 63%
17:00 +11°C° 0 mm 6 mps 753 mmHg 64%
18:00 +12°C° 0 mm 5 mps 753 mmHg 66%
19:00 +10°C° 0 mm 5 mps 753 mmHg 67%
20:00 +10°C° 0 mm 4 mps 754 mmHg 69%
21:00 +10°C° 0 mm 4 mps 754 mmHg 69%
22:00 +10°C° 0 mm 4 mps 754 mmHg 68%
23:00 +10°C° 0 mm 4 mps 754 mmHg 68%

19 April, Monday

Time Temperature Precipitation Wind Pressure Humidity
00:00 +8°C° 0 mm 4 mps 754 mmHg 72%
01:00 +8°C° 0 mm 3 mps 754 mmHg 77%
02:00 +7°C° 0 mm 3 mps 754 mmHg 81%
03:00 +5°C° 0 mm 3 mps 754 mmHg 85%
04:00 +5°C° 0 mm 3 mps 754 mmHg 89%
05:00 +4°C° 0 mm 3 mps 754 mmHg 93%
06:00 +5°C° 0 mm 4 mps 754 mmHg 88%
07:00 +7°C° 0 mm 4 mps 754 mmHg 83%
08:00 +8°C° 0 mm 5 mps 754 mmHg 79%
09:00 +9°C° 0 mm 5 mps 754 mmHg 73%
10:00 +12°C° 0 mm 5 mps 754 mmHg 67%
11:00 +13°C° 0 mm 6 mps 754 mmHg 60%
12:00 +13°C° 0 mm 5 mps 754 mmHg 62%
13:00 +12°C° 0 mm 4 mps 754 mmHg 63%
14:00 +12°C° 0 mm 4 mps 754 mmHg 65%
15:00 +12°C° 0 mm 4 mps 754 mmHg 66%
16:00 +12°C° 0 mm 4 mps 754 mmHg 67%
17:00 +12°C° 0 mm 4 mps 754 mmHg 68%
18:00 +11°C° 0 mm 4 mps 753 mmHg 69%
19:00 +11°C° 0 mm 4 mps 753 mmHg 70%
20:00 +10°C° 0 mm 3 mps 753 mmHg 71%
21:00 +10°C° 0 mm 3 mps 753 mmHg 70%
22:00 +10°C° 0 mm 3 mps 753 mmHg 68%
23:00 +10°C° 0 mm 3 mps 753 mmHg 67%
Show more

We Need Your Consent

Meteoprog and our Service Providers may store and access personal data such as cookies, device identifiers or other similar technologies on your device and process such data to personalise content and ads, as well as provide social media features and to analyse the traffic.

  • Store and/or access information on your device

    Cookies, device identifiers or other information can be stored or accessed on your device for the purposes indicated above.

  • Personalised ads and content, ad and content measurement, audience insights, and products development

    Ads and content can be personalised based on a profile. More data can be added to better personalise ads and content. Ad and content performance can be measured. Insights about the audience who saw the ads and content can be derived. Such data can be used to develop or improve user’s experience, systems and software.

By clicking ‘I Agree’ you will allow the use of indicated cookies, device identifiers, web beacons or other similar technologies. Your settings can be changed in the browser on your device.

For certain purposes, legitimate interests may be relied on, rather than consent. You can read more about this in our Privacy and Cookie Policy.